TEN-KOH 2

Last updated on Sun Apr 12 2026 00:02:07 GMT+0000 (Coordinated Universal Time)

1 68261U 25241B 26101.49963353 .00007436 00000+0 32522-3 0 9995 2 68261 51.6423 276.8678 0004847 280.5677 79.4754 15.23036905 4743
UTC large
Height (km)
Speed (km/s)
/
Latitude / Longitude
Inclination (degrees)
Orbital Period (minutes)
Azimuth
Elevation
Range (km)
Doppler Factor

Next 0 passes for location: London (51.5072 / 0.1276)

Sorry there are no passes over London.
TEN-KOH 2